Delta Virtual Airport Information Service

Little Rock Clinton National Airport

ICAO: KLIT Country: United States
Latitude: 34.7294 Longitude: -92.2243
Latest Arrival : UPS795 (A) (KMFE-KLIT) Latest Departure : DAL1913 (2B) (KLIT-KATL)


WX CaptureLIVE
Data provided by noaa.gov | Fetched at 23:43:02

METAR : KLIT 120353Z 03009KT 10SM BKN009 BKN021 OVC034 13/12 A3015 RMK AO2 SLP210 T01280117

TAF : KLIT 120315Z 1203/1224 03008G15KT P6SM VCSH SCT006 OVC025 TEMPO 1203/1207 5SM -DZ BR BKN006 FM120800 05010G18KT P6SM BKN025 OVC050 FM121200 05010G18KT P6SM SCT025 BKN040 OVC080


Runway Data for KLIT
Data provided by openaviationdata.com

Runway ID Mag Var Hdg Length Elevation Surface ILS Freq ILS Id ILS Slope
04L 2 44° 8274 ft 262 ft Concrete 110.3 ILIT 3
04R 2 44° 7201 ft 262 ft Concrete 111.3 ICNL 3
18 2 179° 5133 ft 262 ft Asphalt -- -- --
22L 2 224° 7201 ft 262 ft Concrete 110.7 IBWY 3
22R 2 224° 8274 ft 262 ft Concrete 110.3 IAAY 3
36 2 359° 5133 ft 262 ft Asphalt -- -- --

Little Rock Clinton National Airport, United States
Use only for reference purposes



Not for navigational purposes.